User: anonymous   Login
Location: Unspecified
(0.0000°N, 0.0000°E)
Time: 16:40:26
(UTC+00:00)
Language:

A-11 Canister half - Orbit

View from above orbital plane
View from above orbital plane
View from above satellite
View from above satellite

Ground track
Ground track

The orbit data is extracted from the following two-line orbital elements,

1 00053U 60009E   21101.84749784 -.00000027  00000-0  56307-3 0  9993
2 00053  47.2778  58.7809 0099120 244.0502 115.0046 12.17254573704915
Epoch (UTC): 11 April 2021 20:20:23
Eccentricity: 0.0099120
inclination: 47.2778°
perigee height: 1525 km
apogee height: 1683 km
right ascension of ascending node: 58.7809°
argument of perigee: 244.0502°
revolutions per day: 12.17254573
mean anomaly at epoch: 115.0046°
orbit number at epoch: 70491

The dashed part of the orbit path shows where the satellite is in the earth's shadow,  

DLR